Zurück zum Katalog

DELTA 1 DEB

AktivSSO
NORAD 42652·DEBRIS·🇺🇸 United States

Gestartet Jun 12, 1975 von Vandenberg Space Force Base

Loading…

Nächste Überflüge (nächste 24 Stunden)

TLE

AktuellSource: Space-Track

Epoche: Sep 13, 2026, 05:00 UTC

1 42652U 75052MM  26256.20857730  .00000166  00000-0  41573-3 0  9997
2 42652  99.7890  38.7028 0073587 120.4441   3.6336 13.33228341622985

Verfolge DELTA 1 DEB in Echtzeit mit AllMySat

Download on the App Store